Flag for Germany Weather past 2 weeks in Bietigheim-Bissingen, Baden-Württemberg, Germany

Now
50 °F

Passing clouds.


Feels Like: 50 °F
Forecast: 41 / 65 °F
Wind: 1 mph from Northeast

Location: Stuttgart-Echterdingen


UV Index: 0 (Low)

Visibility: 38 mi


Pressure: 29.70 "Hg

Humidity: 69%

Dew point: 40 °F

Location of Bietigheim-BissingenLocation

Historic Weather in Bietigheim-Bissingen

°F

Bietigheim-Bissingen temperature yesterday

Maximum temperature yesterday: 63 °F (at 7:00 PM)
Minimum temperature yesterday: 44 °F (at 7:00 AM)
Average temperature yesterday: 53 °F

Past Weeks' High & Low Weather Summary

 TemperatureHumidityPressure
High70 °F (Apr 7, 4:00 PM)97% (Apr 19, 4:00 AM)30.42 "Hg (Apr 19, 4:00 AM)
Low33 °F (Apr 17, 6:00 AM)25% (Apr 17, 5:00 PM)29.63 "Hg (Apr 20, 7:00 PM)
Average50 °F65%30.08 "Hg
* Reported Apr 6 1:00 AM — Apr 20 11:00 PM, Bietigheim-Bissingen, Weather by CustomWeather, © 2014

Note: Actual official high and low records may vary slightly from our data, if they occured in-between our weather recording intervals... More about our weather records

Advertising

Historic Weather Conditions — Data for Previous 24 hours

 ConditionsComfort  
Time TempWeatherWind HumidityBarometerVisibility
11:00 PM
Apr 20
51 °FPassing clouds.1 mph68%29.70 "Hg37 mi
10:00 PM53 °FPassing clouds.3 mph66%29.69 "Hg37 mi
9:00 PM55 °FPassing clouds.2 mph63%29.67 "Hg37 mi
8:00 PM58 °FScattered clouds.2 mph52%29.65 "Hg40 mi
7:00 PM63 °FPassing clouds.6 mph44%29.63 "Hg40 mi
6:00 PM62 °FPassing clouds.5 mph43%29.64 "Hg40 mi
4:00 PM63 °FPartly sunny.5 mph47%29.66 "Hg40 mi
3:00 PM62 °FOvercast.3 mph49%29.67 "Hg37 mi
2:00 PM61 °FPartly sunny.5 mph50%29.68 "Hg37 mi
1:00 PM59 °FPartly sunny.3 mph57%29.69 "Hg31 mi
12:00 PM57 °FScattered clouds.2 mph63%29.70 "Hg28 mi
11:00 AM57 °FCool.5 mph69%29.71 "HgN/A
10:00 AM54 °FPassing clouds.2 mph80%29.71 "Hg12 mi
9:00 AM47 °FScattered clouds.No wind91%29.74 "Hg12 mi
8:00 AM46 °FScattered clouds.No wind90%29.74 "Hg16 mi
7:00 AM44 °FPassing clouds.1 mph94%29.73 "Hg9 mi
6:00 AM44 °FPassing clouds.2 mph93%29.73 "Hg9 mi
5:00 AM46 °FPassing clouds.1 mph88%29.73 "Hg9 mi
4:00 AM48 °FPassing clouds.1 mph84%29.73 "Hg9 mi
3:00 AM45 °FPassing clouds.1 mph90%29.76 "Hg8 mi
2:00 AM48 °FPassing clouds.1 mph87%29.76 "Hg9 mi
1:00 AM49 °FPassing clouds.1 mph83%29.78 "Hg9 mi
12:00 AM50 °FPassing clouds.2 mph84%29.79 "Hg9 mi
Weather by CustomWeather, © 2014

See weather overview